METEOR-M2 2

Last updated on Thu Nov 21 2024 00:02:20 GMT+0000 (Coordinated Universal Time)

1 44387U 19038A 24325.56285358 .00000296 00000+0 14848-3 0 9999 2 44387 98.8494 295.5783 0000655 171.2333 188.8857 14.24066815279645
UTC large
Height (km)
Speed (km/s)
/
Latitude / Longitude
Inclination (degrees)
Orbital Period (minutes)
Azimuth
Elevation
Range (km)
Doppler Factor

Next 0 passes for location: London (51.5072 / 0.1276)

Sorry there are no passes over London.